Location: Aciu?a
(46.2833°N, 22.4500°E)
Time: 05:43:43
(UTC+00:00)

CZ-2C R/B - Pass Details

Date: 25 October 2021
Orbit: 784 x 871 km, 98.2° (Epoch: 04 December)

Event Time Altitude Azimuth Distance (km) Brightness Sun altitude
Rises 16:39:45 0° 15° (NNE) 3,464 5.7 -13.3°
Reaches altitude 10° 16:42:11 10° 17° (NNE) 2,516 5.0 -13.7°
Maximum altitude 16:47:47 72° 102° (ESE) 900 2.6 -14.7°
Drops below altitude 10° 16:53:14 10° 187° (S) 2,452 5.2 -15.6°
Sets 16:55:34 0° 189° (S) 3,370 6.0 -16.0°
